Wetterdaten: Woche 31.01.11 - 06.02.11 (KW5)
Datum Zeit Temp. Innen Temp. Aussen UV X Diff Temp. Feuchte Inne Feuchte Auss Sonnenschein Luftdruck Regen ab 0,1 Wind Sonnenschein T Regendauer Windben
31.01.2011 00:00 10,0 C -2,7 C 0,0 UV-I 0,0 C 46 % 91 % 0 % 1021,1 hPa 0,0 l/m 1,1 km/h (1 Bft) 0,00 h 0,00 h 1,4 km/h (1 Bft)
31.01.2011 01:00 9,9 C -2,5 C 0,0 UV-I 0,0 C 46 % 92 % 0 % 1021,6 hPa 0,0 l/m 1,0 km/h (0 Bft) 0,00 h 0,00 h 1,4 km/h (1 Bft)
31.01.2011 02:00 10,0 C -2,4 C 0,0 UV-I 0,0 C 46 % 92 % 0 % 1021,6 hPa 0,0 l/m 4,4 km/h (1 Bft) 0,00 h 0,00 h 5,9 km/h (2 Bft)
31.01.2011 03:00 10,1 C -2,5 C 0,0 UV-I 0,0 C 46 % 92 % 0 % 1021,8 hPa 0,0 l/m 2,0 km/h (1 Bft) 0,00 h 0,00 h 1,4 km/h (1 Bft)
31.01.2011 04:00 10,0 C -2,6 C 0,0 UV-I 0,0 C 46 % 92 % 0 % 1021,9 hPa 0,0 l/m 3,2 km/h (1 Bft) 0,00 h 0,00 h 3,2 km/h (1 Bft)
31.01.2011 05:00 10,0 C -2,7 C 0,0 UV-I 0,0 C 46 % 92 % 0 % 1022,1 hPa 0,0 l/m 2,1 km/h (1 Bft) 0,00 h 0,00 h 2,7 km/h (1 Bft)
31.01.2011 06:00 9,9 C -2,9 C 0,0 UV-I 0,0 C 46 % 92 % 0 % 1022,4 hPa 0,0 l/m 1,5 km/h (1 Bft) 0,00 h 0,00 h 1,7 km/h (1 Bft)
31.01.2011 07:00 10,0 C -2,9 C 0,0 UV-I 0,0 C 46 % 92 % 0 % 1022,6 hPa 0,0 l/m 1,3 km/h (1 Bft) 0,00 h 0,00 h 1,5 km/h (1 Bft)
31.01.2011 08:00 9,8 C -3,0 C 0,0 UV-I 0,0 C 46 % 92 % 0 % 1023,0 hPa 0,0 l/m 1,3 km/h (1 Bft) 0,00 h 0,00 h 1,9 km/h (1 Bft)
31.01.2011 09:00 9,9 C -3,1 C 0,0 UV-I 0,0 C 46 % 92 % 0 % 1024,0 hPa 0,0 l/m 2,9 km/h (1 Bft) 0,00 h 0,00 h 2,8 km/h (1 Bft)
31.01.2011 10:00 9,9 C -3,1 C 0,0 UV-I 0,0 C 46 % 92 % 0 % 1024,2 hPa 0,0 l/m 0,7 km/h (0 Bft) 0,00 h 0,00 h 0,7 km/h (0 Bft)
31.01.2011 11:00 10,0 C -2,9 C 0,0 UV-I 0,0 C 46 % 92 % 0 % 1024,7 hPa 0,0 l/m 1,1 km/h (1 Bft) 0,00 h 0,00 h 1,2 km/h (1 Bft)
31.01.2011 12:00 10,0 C -2,7 C 0,0 UV-I 0,0 C 46 % 92 % 0 % 1024,7 hPa 0,0 l/m 1,1 km/h (1 Bft) 0,00 h 0,00 h 1,2 km/h (1 Bft)
31.01.2011 13:00 10,1 C -2,4 C 0,0 UV-I 0,2 C 45 % 91 % 5 % 1024,9 hPa 0,0 l/m 2,2 km/h (1 Bft) 0,00 h 0,00 h 2,1 km/h (1 Bft)
31.01.2011 14:00 10,2 C -2,1 C 0,0 UV-I 0,3 C 45 % 91 % 8 % 1024,4 hPa 0,0 l/m 0,7 km/h (0 Bft) 0,00 h 0,00 h 1,4 km/h (1 Bft)
31.01.2011 15:00 10,2 C -2,1 C 0,0 UV-I 0,0 C 45 % 89 % 0 % 1024,6 hPa 0,0 l/m 1,7 km/h (1 Bft) 0,00 h 0,00 h 2,0 km/h (1 Bft)
31.01.2011 16:00 10,1 C -2,2 C 0,0 UV-I 0,0 C 45 % 89 % 0 % 1024,8 hPa 0,0 l/m 3,1 km/h (1 Bft) 0,00 h 0,00 h 3,7 km/h (1 Bft)
31.01.2011 17:00 10,0 C -2,3 C 0,0 UV-I 0,0 C 45 % 89 % 0 % 1025,0 hPa 0,0 l/m 1,5 km/h (1 Bft) 0,00 h 0,00 h 1,7 km/h (1 Bft)
31.01.2011 18:00 9,9 C -2,4 C 0,0 UV-I 0,0 C 45 % 88 % 0 % 1025,3 hPa 0,0 l/m 2,2 km/h (1 Bft) 0,00 h 0,00 h 2,6 km/h (1 Bft)
31.01.2011 19:00 9,9 C -2,6 C 0,0 UV-I 0,0 C 45 % 88 % 0 % 1025,6 hPa 0,0 l/m 1,9 km/h (1 Bft) 0,00 h 0,00 h 1,8 km/h (1 Bft)
31.01.2011 20:00 9,8 C -2,5 C 0,0 UV-I 0,0 C 45 % 88 % 0 % 1025,6 hPa 0,0 l/m 0,6 km/h (0 Bft) 0,00 h 0,00 h 0,9 km/h (0 Bft)
31.01.2011 21:00 9,8 C -2,5 C 0,0 UV-I 0,0 C 45 % 88 % 0 % 1025,6 hPa 0,0 l/m 0,2 km/h (0 Bft) 0,00 h 0,00 h 0,4 km/h (0 Bft)
31.01.2011 22:00 9,7 C -2,6 C 0,0 UV-I 0,0 C 44 % 88 % 0 % 1025,4 hPa 0,0 l/m 0,2 km/h (0 Bft) 0,00 h 0,00 h 0,2 km/h (0 Bft)
31.01.2011 23:00 9,6 C -2,9 C 0,0 UV-I 0,0 C 44 % 88 % 0 % 1025,4 hPa 0,0 l/m 2,5 km/h (1 Bft) 0,00 h 0,00 h 3,5 km/h (1 Bft)
01.02.2011 00:00 9,6 C -3,3 C 0,0 UV-I 0,0 C 44 % 88 % 0 % 1025,4 hPa 0,0 l/m 0,7 km/h (0 Bft) 0,00 h 0,00 h 1,1 km/h (0 Bft)
01.02.2011 01:00 9,6 C -3,3 C 0,0 UV-I 0,0 C 44 % 89 % 0 % 1025,4 hPa 0,0 l/m 0,6 km/h (0 Bft) 0,00 h 0,00 h 1,5 km/h (1 Bft)
01.02.2011 02:00 9,5 C -3,3 C 0,0 UV-I 0,0 C 44 % 90 % 0 % 1025,4 hPa 0,0 l/m 0,6 km/h (0 Bft) 0,00 h 0,00 h 1,1 km/h (1 Bft)
01.02.2011 03:00 9,4 C -3,5 C 0,0 UV-I 0,0 C 44 % 90 % 0 % 1025,6 hPa 0,0 l/m 1,2 km/h (1 Bft) 0,00 h 0,00 h 2,2 km/h (1 Bft)
01.02.2011 04:00 9,4 C -3,7 C 0,0 UV-I 0,0 C 44 % 90 % 0 % 1025,1 hPa 0,0 l/m 1,5 km/h (1 Bft) 0,00 h 0,00 h 2,6 km/h (1 Bft)
01.02.2011 05:00 9,2 C -3,7 C 0,0 UV-I 0,0 C 44 % 90 % 0 % 1025,0 hPa 0,0 l/m 1,1 km/h (1 Bft) 0,00 h 0,00 h 1,7 km/h (1 Bft)
01.02.2011 06:00 9,2 C -3,6 C 0,0 UV-I 0,0 C 44 % 90 % 0 % 1025,0 hPa 0,0 l/m 2,2 km/h (1 Bft) 0,00 h 0,00 h 2,7 km/h (1 Bft)
01.02.2011 07:00 9,2 C -3,7 C 0,0 UV-I 0,0 C 44 % 90 % 0 % 1025,0 hPa 0,0 l/m 1,7 km/h (1 Bft) 0,00 h 0,00 h 3,0 km/h (1 Bft)
01.02.2011 08:00 9,0 C -3,9 C 0,0 UV-I 0,0 C 44 % 90 % 0 % 1025,1 hPa 0,0 l/m 2,1 km/h (1 Bft) 0,00 h 0,00 h 3,1 km/h (1 Bft)
01.02.2011 09:00 9,0 C -3,8 C 0,0 UV-I 0,0 C 44 % 90 % 0 % 1025,1 hPa 0,0 l/m 3,7 km/h (1 Bft) 0,00 h 0,00 h 5,2 km/h (1 Bft)
01.02.2011 10:00 8,9 C -3,7 C 0,0 UV-I 0,0 C 43 % 89 % 0 % 1025,1 hPa 0,0 l/m 4,4 km/h (1 Bft) 0,00 h 0,00 h 5,9 km/h (2 Bft)
01.02.2011 11:00 8,9 C -3,6 C 0,0 UV-I 0,0 C 43 % 89 % 0 % 1025,5 hPa 0,0 l/m 4,4 km/h (1 Bft) 0,00 h 0,00 h 6,7 km/h (2 Bft)
01.02.2011 12:00 8,8 C -3,3 C 0,0 UV-I 0,0 C 43 % 88 % 0 % 1025,7 hPa 0,0 l/m 5,5 km/h (1 Bft) 0,00 h 0,00 h 7,2 km/h (2 Bft)
01.02.2011 13:00 8,8 C -3,1 C 0,0 UV-I 0,1 C 43 % 88 % 2 % 1025,7 hPa 0,0 l/m 3,8 km/h (1 Bft) 0,00 h 0,00 h 4,8 km/h (1 Bft)
01.02.2011 14:00 9,0 C -2,4 C 0,0 UV-I 0,0 C 43 % 88 % 0 % 1025,7 hPa 0,0 l/m 2,8 km/h (1 Bft) 0,00 h 0,00 h 4,2 km/h (1 Bft)
01.02.2011 15:00 9,0 C -1,9 C 0,0 UV-I 0,0 C 44 % 88 % 0 % 1025,7 hPa 0,0 l/m 3,3 km/h (1 Bft) 0,00 h 0,00 h 5,3 km/h (1 Bft)
01.02.2011 16:00 9,0 C -1,4 C 0,0 UV-I 0,0 C 44 % 89 % 0 % 1025,7 hPa 0,0 l/m 6,3 km/h (2 Bft) 0,00 h 0,00 h 7,1 km/h (2 Bft)
01.02.2011 17:00 9,0 C -1,0 C 0,0 UV-I 0,0 C 45 % 88 % 0 % 1025,7 hPa 0,0 l/m 4,1 km/h (1 Bft) 0,00 h 0,00 h 4,9 km/h (1 Bft)
01.02.2011 18:00 9,0 C -0,8 C 0,0 UV-I 0,0 C 46 % 88 % 0 % 1025,7 hPa 0,0 l/m 5,3 km/h (1 Bft) 0,00 h 0,00 h 6,1 km/h (2 Bft)
01.02.2011 19:00 8,9 C -0,6 C 0,0 UV-I 0,0 C 46 % 88 % 0 % 1025,7 hPa 0,0 l/m 5,2 km/h (1 Bft) 0,00 h 0,00 h 6,4 km/h (2 Bft)
01.02.2011 20:00 9,0 C -0,9 C 0,0 UV-I 0,0 C 47 % 90 % 0 % 1025,7 hPa 0,0 l/m 2,4 km/h (1 Bft) 0,00 h 0,00 h 3,2 km/h (1 Bft)
01.02.2011 21:00 9,0 C -0,7 C 0,0 UV-I 0,0 C 48 % 92 % 0 % 1025,8 hPa 0,0 l/m 2,5 km/h (1 Bft) 0,00 h 0,00 h 3,3 km/h (1 Bft)
01.02.2011 22:00 9,1 C -0,5 C 0,0 UV-I 0,0 C 49 % 92 % 0 % 1026,0 hPa 0,0 l/m 0,9 km/h (0 Bft) 0,00 h 0,00 h 1,3 km/h (1 Bft)
01.02.2011 23:00 9,2 C -0,1 C 0,0 UV-I 0,0 C 50 % 93 % 0 % 1026,1 hPa 0,0 l/m 0,5 km/h (0 Bft) 0,00 h 0,00 h 0,8 km/h (0 Bft)
02.02.2011 00:00 9,4 C 0,4 C 0,0 UV-I 0,0 C 50 % 93 % 0 % 1026,4 hPa 0,1 l/m 1,1 km/h (1 Bft) 0,00 h 0,00 h 3,0 km/h (1 Bft)
02.02.2011 01:00 9,4 C 0,6 C 0,0 UV-I 0,0 C 51 % 93 % 0 % 1026,4 hPa 0,0 l/m 1,5 km/h (1 Bft) 0,00 h 0,00 h 2,0 km/h (1 Bft)
02.02.2011 02:00 9,5 C 0,8 C 0,0 UV-I 0,0 C 51 % 94 % 0 % 1027,0 hPa 0,1 l/m 1,6 km/h (1 Bft) 0,00 h 0,00 h 2,5 km/h (1 Bft)
02.02.2011 03:00 9,5 C 0,9 C 0,0 UV-I 0,0 C 52 % 94 % 0 % 1027,0 hPa 0,1 l/m 3,4 km/h (1 Bft) 0,00 h 0,00 h 3,7 km/h (1 Bft)
02.02.2011 04:00 9,5 C 0,9 C 0,0 UV-I 0,0 C 52 % 94 % 0 % 1027,4 hPa 0,3 l/m 2,9 km/h (1 Bft) 0,00 h 0,00 h 4,7 km/h (1 Bft)
02.02.2011 05:00 9,5 C 1,1 C 0,0 UV-I 0,0 C 52 % 94 % 0 % 1027,5 hPa 0,1 l/m 2,0 km/h (1 Bft) 0,00 h 0,00 h 2,9 km/h (1 Bft)
02.02.2011 06:00 9,6 C 1,1 C 0,0 UV-I 0,0 C 52 % 94 % 0 % 1027,5 hPa 0,1 l/m 1,5 km/h (1 Bft) 0,00 h 0,00 h 1,9 km/h (1 Bft)
02.02.2011 07:00 9,6 C 1,2 C 0,0 UV-I 0,0 C 53 % 94 % 0 % 1027,6 hPa 0,1 l/m 1,9 km/h (1 Bft) 0,00 h 0,00 h 1,9 km/h (1 Bft)
02.02.2011 08:00 9,6 C 1,3 C 0,0 UV-I 0,0 C 53 % 94 % 0 % 1027,6 hPa 0,1 l/m 1,9 km/h (1 Bft) 0,00 h 0,00 h 2,8 km/h (1 Bft)
02.02.2011 09:00 9,8 C 1,5 C 0,0 UV-I 0,0 C 53 % 94 % 0 % 1027,6 hPa 0,1 l/m 1,5 km/h (1 Bft) 0,00 h 0,00 h 2,7 km/h (1 Bft)
02.02.2011 10:00 9,8 C 1,8 C 0,0 UV-I 0,0 C 53 % 94 % 0 % 1029,0 hPa 0,0 l/m 3,3 km/h (1 Bft) 0,00 h 0,00 h 4,2 km/h (1 Bft)
02.02.2011 11:00 9,9 C 2,2 C 0,0 UV-I 0,0 C 53 % 94 % 1 % 1029,1 hPa 0,1 l/m 3,8 km/h (1 Bft) 0,00 h 0,00 h 5,3 km/h (1 Bft)
02.02.2011 12:00 10,1 C 2,6 C 0,0 UV-I 0,0 C 54 % 94 % 0 % 1028,5 hPa 0,1 l/m 4,7 km/h (1 Bft) 0,00 h 0,00 h 7,9 km/h (2 Bft)
02.02.2011 13:00 10,0 C 2,5 C 0,0 UV-I 0,0 C 54 % 93 % 0 % 1028,3 hPa 0,0 l/m 8,8 km/h (2 Bft) 0,00 h 0,00 h 10,1 km/h (2 Bft)
02.02.2011 14:00 10,0 C 2,4 C 0,0 UV-I 0,0 C 53 % 92 % 0 % 1028,1 hPa 0,0 l/m 8,5 km/h (2 Bft) 0,00 h 0,00 h 9,8 km/h (2 Bft)
02.02.2011 15:00 10,0 C 2,5 C 0,0 UV-I 0,0 C 53 % 91 % 0 % 1028,1 hPa 0,0 l/m 6,7 km/h (2 Bft) 0,00 h 0,00 h 7,3 km/h (2 Bft)
02.02.2011 16:00 9,9 C 2,7 C 0,0 UV-I 0,0 C 53 % 91 % 0 % 1027,4 hPa 0,1 l/m 4,7 km/h (1 Bft) 0,00 h 0,00 h 5,2 km/h (1 Bft)
02.02.2011 17:00 9,9 C 2,7 C 0,0 UV-I 0,0 C 53 % 90 % 0 % 1026,5 hPa 0,0 l/m 5,6 km/h (1 Bft) 0,00 h 0,00 h 6,6 km/h (2 Bft)
02.02.2011 18:00 10,0 C 2,2 C 0,0 UV-I 0,0 C 53 % 90 % 0 % 1026,4 hPa 0,0 l/m 1,1 km/h (1 Bft) 0,00 h 0,00 h 2,2 km/h (1 Bft)
02.02.2011 19:00 9,9 C 2,3 C 0,0 UV-I 0,0 C 53 % 90 % 0 % 1026,5 hPa 0,0 l/m 5,7 km/h (1 Bft) 0,00 h 0,00 h 8,2 km/h (2 Bft)
02.02.2011 20:00 9,9 C 2,4 C 0,0 UV-I 0,0 C 53 % 90 % 0 % 1026,2 hPa 0,0 l/m 4,2 km/h (1 Bft) 0,00 h 0,00 h 5,5 km/h (1 Bft)
02.02.2011 21:00 10,0 C 2,5 C 0,0 UV-I 0,0 C 53 % 89 % 0 % 1025,9 hPa 0,0 l/m 6,0 km/h (2 Bft) 0,00 h 0,00 h 6,6 km/h (2 Bft)
02.02.2011 22:00 9,8 C 2,8 C 0,0 UV-I 0,0 C 53 % 88 % 0 % 1025,8 hPa 0,0 l/m 7,1 km/h (2 Bft) 0,00 h 0,00 h 8,6 km/h (2 Bft)
02.02.2011 23:00 9,9 C 3,1 C 0,0 UV-I 0,0 C 53 % 88 % 0 % 1024,9 hPa 0,0 l/m 6,3 km/h (2 Bft) 0,00 h 0,00 h 8,0 km/h (2 Bft)
03.02.2011 00:00 10,0 C 2,9 C 0,0 UV-I 0,0 C 54 % 89 % 0 % 1024,6 hPa 0,1 l/m 6,3 km/h (2 Bft) 0,00 h 0,00 h 8,7 km/h (2 Bft)
03.02.2011 01:00 10,1 C 2,3 C 0,0 UV-I 0,0 C 54 % 89 % 0 % 1024,6 hPa 0,0 l/m 8,2 km/h (2 Bft) 0,00 h 0,00 h 9,8 km/h (2 Bft)
03.02.2011 02:00 10,2 C 2,0 C 0,0 UV-I 0,0 C 54 % 90 % 0 % 1023,3 hPa 0,1 l/m 7,3 km/h (2 Bft) 0,00 h 0,00 h 7,2 km/h (2 Bft)
03.02.2011 03:00 10,2 C 1,7 C 0,0 UV-I 0,0 C 54 % 91 % 0 % 1023,0 hPa 1,1 l/m 6,0 km/h (2 Bft) 0,00 h 0,00 h 6,9 km/h (2 Bft)
03.02.2011 04:00 10,3 C 1,8 C 0,0 UV-I 0,0 C 54 % 92 % 0 % 1022,3 hPa 0,7 l/m 4,5 km/h (1 Bft) 0,00 h 0,00 h 4,6 km/h (1 Bft)
03.02.2011 05:00 10,3 C 3,6 C 0,0 UV-I 0,0 C 56 % 94 % 0 % 1022,1 hPa 0,5 l/m 4,0 km/h (1 Bft) 0,00 h 0,00 h 5,1 km/h (1 Bft)
03.02.2011 06:00 10,3 C 4,3 C 0,0 UV-I 0,0 C 59 % 94 % 0 % 1022,6 hPa 0,2 l/m 5,9 km/h (2 Bft) 0,00 h 0,00 h 7,1 km/h (2 Bft)
03.02.2011 07:00 10,3 C 4,4 C 0,0 UV-I 0,0 C 60 % 94 % 0 % 1023,2 hPa 0,0 l/m 6,7 km/h (2 Bft) 0,00 h 0,00 h 7,5 km/h (2 Bft)
03.02.2011 08:00 10,3 C 4,5 C 0,0 UV-I 0,0 C 61 % 94 % 0 % 1023,2 hPa 0,0 l/m 6,1 km/h (2 Bft) 0,00 h 0,00 h 6,4 km/h (2 Bft)
03.02.2011 09:00 10,4 C 4,6 C 0,0 UV-I 0,0 C 61 % 94 % 0 % 1023,7 hPa 0,0 l/m 7,0 km/h (2 Bft) 0,00 h 0,00 h 7,9 km/h (2 Bft)
03.02.2011 10:00 10,4 C 4,9 C 0,0 UV-I 0,6 C 61 % 94 % 18 % 1024,4 hPa 0,1 l/m 8,6 km/h (2 Bft) 0,00 h 0,00 h 9,3 km/h (2 Bft)
03.02.2011 11:00 10,8 C 5,6 C 0,0 UV-I 1,2 C 61 % 93 % 33 % 1025,6 hPa 0,0 l/m 5,9 km/h (2 Bft) 0,00 h 0,00 h 6,2 km/h (2 Bft)
03.02.2011 12:00 11,0 C 5,7 C 0,0 UV-I 0,6 C 61 % 93 % 16 % 1025,4 hPa 0,0 l/m 3,8 km/h (1 Bft) 0,00 h 0,00 h 5,1 km/h (1 Bft)
03.02.2011 13:00 11,1 C 6,2 C 0,0 UV-I 0,8 C 60 % 92 % 23 % 1025,5 hPa 0,0 l/m 6,1 km/h (2 Bft) 0,00 h 0,00 h 6,7 km/h (2 Bft)
03.02.2011 14:00 11,2 C 6,3 C 0,0 UV-I 0,3 C 60 % 91 % 7 % 1025,4 hPa 0,0 l/m 4,9 km/h (1 Bft) 0,00 h 0,00 h 5,6 km/h (1 Bft)
03.02.2011 15:00 11,2 C 6,0 C 0,0 UV-I 0,0 C 59 % 90 % 1 % 1025,2 hPa 0,0 l/m 4,7 km/h (1 Bft) 0,00 h 0,00 h 5,1 km/h (1 Bft)
03.02.2011 16:00 11,1 C 5,9 C 0,0 UV-I 0,0 C 59 % 90 % 0 % 1025,4 hPa 0,0 l/m 4,7 km/h (1 Bft) 0,00 h 0,00 h 5,3 km/h (1 Bft)
03.02.2011 17:00 11,2 C 5,4 C 0,0 UV-I 0,0 C 59 % 90 % 0 % 1025,5 hPa 0,0 l/m 3,3 km/h (1 Bft) 0,00 h 0,00 h 4,5 km/h (1 Bft)
03.02.2011 18:00 11,0 C 4,7 C 0,0 UV-I 0,0 C 59 % 90 % 0 % 1025,1 hPa 0,0 l/m 3,0 km/h (1 Bft) 0,00 h 0,00 h 3,7 km/h (1 Bft)
03.02.2011 19:00 10,9 C 4,1 C 0,0 UV-I 0,0 C 59 % 91 % 0 % 1025,5 hPa 0,0 l/m 1,6 km/h (1 Bft) 0,00 h 0,00 h 2,7 km/h (1 Bft)
03.02.2011 20:00 10,8 C 3,7 C 0,0 UV-I 0,0 C 59 % 91 % 0 % 1025,4 hPa 0,0 l/m 2,6 km/h (1 Bft) 0,00 h 0,00 h 3,6 km/h (1 Bft)
03.02.2011 21:00 10,7 C 3,7 C 0,0 UV-I 0,0 C 58 % 91 % 0 % 1025,0 hPa 0,0 l/m 5,2 km/h (1 Bft) 0,00 h 0,00 h 6,5 km/h (2 Bft)
03.02.2011 22:00 10,6 C 3,6 C 0,0 UV-I 0,0 C 58 % 90 % 0 % 1024,5 hPa 0,0 l/m 4,1 km/h (1 Bft) 0,00 h 0,00 h 5,8 km/h (2 Bft)
03.02.2011 23:00 10,6 C 4,0 C 0,0 UV-I 0,0 C 58 % 90 % 0 % 1024,8 hPa 0,0 l/m 7,4 km/h (2 Bft) 0,00 h 0,00 h 8,5 km/h (2 Bft)
04.02.2011 00:00 10,6 C 4,4 C 0,0 UV-I 0,0 C 58 % 89 % 0 % 1023,7 hPa 0,0 l/m 7,9 km/h (2 Bft) 0,00 h 0,00 h 9,8 km/h (2 Bft)
04.02.2011 01:00 10,6 C 4,7 C 0,0 UV-I 0,0 C 58 % 88 % 0 % 1022,1 hPa 0,0 l/m 7,8 km/h (2 Bft) 0,00 h 0,00 h 9,9 km/h (2 Bft)
04.02.2011 02:00 10,6 C 5,1 C 0,0 UV-I 0,0 C 58 % 86 % 0 % 1021,6 hPa 0,0 l/m 7,3 km/h (2 Bft) 0,00 h 0,00 h 8,0 km/h (2 Bft)
04.02.2011 03:00 10,7 C 5,5 C 0,0 UV-I 0,0 C 57 % 85 % 0 % 1020,9 hPa 0,0 l/m 8,3 km/h (2 Bft) 0,00 h 0,00 h 7,3 km/h (2 Bft)
04.02.2011 04:00 10,8 C 5,7 C 0,0 UV-I 0,0 C 57 % 83 % 0 % 1020,6 hPa 0,0 l/m 9,8 km/h (2 Bft) 0,00 h 0,00 h 12,2 km/h (2 Bft)
04.02.2011 05:00 10,8 C 6,1 C 0,0 UV-I 0,0 C 57 % 84 % 0 % 1019,8 hPa 0,0 l/m 12,0 km/h (2 Bft) 0,00 h 0,00 h 13,3 km/h (3 Bft)
04.02.2011 06:00 10,8 C 6,7 C 0,0 UV-I 0,0 C 58 % 84 % 0 % 1019,1 hPa 0,0 l/m 12,4 km/h (3 Bft) 0,00 h 0,00 h 13,0 km/h (3 Bft)
04.02.2011 07:00 10,9 C 7,1 C 0,0 UV-I 0,0 C 59 % 82 % 0 % 1018,8 hPa 0,0 l/m 13,3 km/h (3 Bft) 0,00 h 0,00 h 13,8 km/h (3 Bft)
04.02.2011 08:00 11,0 C 7,4 C 0,0 UV-I 0,0 C 59 % 82 % 0 % 1019,0 hPa 0,0 l/m 13,3 km/h (3 Bft) 0,00 h 0,00 h 15,0 km/h (3 Bft)
04.02.2011 09:00 11,1 C 7,8 C 0,0 UV-I 0,0 C 60 % 82 % 0 % 1019,2 hPa 0,0 l/m 14,6 km/h (3 Bft) 0,00 h 0,00 h 18,1 km/h (3 Bft)
04.02.2011 10:00 11,2 C 8,0 C 0,0 UV-I 0,0 C 60 % 82 % 0 % 1019,1 hPa 0,0 l/m 15,1 km/h (3 Bft) 0,00 h 0,00 h 15,9 km/h (3 Bft)
04.02.2011 11:00 11,3 C 8,0 C 0,0 UV-I 0,0 C 62 % 85 % 0 % 1019,6 hPa 0,0 l/m 15,5 km/h (3 Bft) 0,00 h 0,00 h 17,9 km/h (3 Bft)
04.02.2011 12:00 11,5 C 8,3 C 0,0 UV-I 0,0 C 63 % 85 % 0 % 1019,4 hPa 0,0 l/m 17,4 km/h (3 Bft) 0,00 h 0,00 h 19,3 km/h (3 Bft)
04.02.2011 13:00 11,6 C 8,8 C 0,0 UV-I 0,0 C 63 % 84 % 0 % 1019,0 hPa 0,0 l/m 16,1 km/h (3 Bft) 0,00 h 0,00 h 18,8 km/h (3 Bft)
04.02.2011 14:00 11,9 C 9,1 C 0,0 UV-I 0,0 C 63 % 84 % 0 % 1018,5 hPa 0,0 l/m 17,8 km/h (3 Bft) 0,00 h 0,00 h 18,8 km/h (3 Bft)
04.02.2011 15:00 12,0 C 9,3 C 0,0 UV-I 0,0 C 64 % 84 % 0 % 1018,4 hPa 0,0 l/m 16,6 km/h (3 Bft) 0,00 h 0,00 h 16,6 km/h (3 Bft)
04.02.2011 16:00 12,2 C 9,6 C 0,0 UV-I 0,0 C 64 % 83 % 0 % 1018,3 hPa 0,0 l/m 15,4 km/h (3 Bft) 0,00 h 0,00 h 18,9 km/h (3 Bft)
04.02.2011 17:00 12,3 C 9,8 C 0,0 UV-I 0,0 C 64 % 84 % 0 % 1018,8 hPa 0,0 l/m 17,2 km/h (3 Bft) 0,00 h 0,00 h 20,8 km/h (4 Bft)
04.02.2011 18:00 12,3 C 10,1 C 0,0 UV-I 0,0 C 64 % 82 % 0 % 1018,7 hPa 0,0 l/m 16,2 km/h (3 Bft) 0,00 h 0,00 h 18,1 km/h (3 Bft)
04.02.2011 19:00 12,4 C 10,4 C 0,0 UV-I 0,0 C 63 % 80 % 0 % 1018,7 hPa 0,0 l/m 17,0 km/h (3 Bft) 0,00 h 0,00 h 18,9 km/h (3 Bft)
04.02.2011 20:00 12,5 C 10,5 C 0,0 UV-I 0,0 C 63 % 79 % 0 % 1018,7 hPa 0,0 l/m 17,3 km/h (3 Bft) 0,00 h 0,00 h 17,3 km/h (3 Bft)
04.02.2011 21:00 12,6 C 10,6 C 0,0 UV-I 0,0 C 62 % 77 % 0 % 1018,5 hPa 0,0 l/m 16,8 km/h (3 Bft) 0,00 h 0,00 h 16,1 km/h (3 Bft)
04.02.2011 22:00 12,7 C 10,7 C 0,0 UV-I 0,0 C 62 % 77 % 0 % 1018,3 hPa 0,0 l/m 18,4 km/h (3 Bft) 0,00 h 0,00 h 19,1 km/h (3 Bft)
04.02.2011 23:00 12,8 C 10,8 C 0,0 UV-I 0,0 C 61 % 76 % 0 % 1018,6 hPa 0,0 l/m 18,0 km/h (3 Bft) 0,00 h 0,00 h 18,7 km/h (3 Bft)
05.02.2011 00:00 12,9 C 10,7 C 0,0 UV-I 0,0 C 61 % 77 % 0 % 1018,9 hPa 0,0 l/m 18,9 km/h (3 Bft) 0,00 h 0,00 h 19,4 km/h (3 Bft)
05.02.2011 01:00 13,0 C 10,7 C 0,0 UV-I 0,0 C 61 % 76 % 0 % 1019,4 hPa 0,0 l/m 17,0 km/h (3 Bft) 0,00 h 0,00 h 19,6 km/h (3 Bft)
05.02.2011 02:00 13,0 C 10,5 C 0,0 UV-I 0,0 C 61 % 77 % 0 % 1018,7 hPa 0,0 l/m 16,8 km/h (3 Bft) 0,00 h 0,00 h 17,3 km/h (3 Bft)
05.02.2011 03:00 13,1 C 10,6 C 0,0 UV-I 0,0 C 61 % 77 % 0 % 1018,2 hPa 0,0 l/m 18,7 km/h (3 Bft) 0,00 h 0,00 h 19,8 km/h (3 Bft)
05.02.2011 04:00 13,2 C 10,9 C 0,0 UV-I 0,0 C 61 % 77 % 0 % 1018,6 hPa 0,0 l/m 20,5 km/h (4 Bft) 0,00 h 0,00 h 22,2 km/h (4 Bft)
05.02.2011 05:00 13,1 C 10,9 C 0,0 UV-I 0,0 C 61 % 76 % 0 % 1018,9 hPa 0,0 l/m 19,0 km/h (3 Bft) 0,00 h 0,00 h 20,3 km/h (4 Bft)
05.02.2011 06:00 13,2 C 10,8 C 0,0 UV-I 0,0 C 61 % 78 % 0 % 1019,1 hPa 0,0 l/m 19,1 km/h (3 Bft) 0,00 h 0,00 h 18,6 km/h (3 Bft)
05.02.2011 07:00 13,2 C 10,7 C 0,0 UV-I 0,0 C 61 % 79 % 0 % 1019,5 hPa 0,0 l/m 16,9 km/h (3 Bft) 0,00 h 0,00 h 19,8 km/h (4 Bft)
05.02.2011 08:00 13,3 C 10,7 C 0,0 UV-I 0,0 C 61 % 79 % 0 % 1020,0 hPa 0,0 l/m 16,9 km/h (3 Bft) 0,00 h 0,00 h 19,0 km/h (3 Bft)
05.02.2011 09:00 13,4 C 10,7 C 0,0 UV-I 0,0 C 61 % 78 % 0 % 1020,2 hPa 0,0 l/m 18,3 km/h (3 Bft) 0,00 h 0,00 h 22,1 km/h (4 Bft)
05.02.2011 10:00 13,4 C 10,8 C 0,0 UV-I 0,0 C 62 % 78 % 0 % 1020,6 hPa 0,0 l/m 18,1 km/h (3 Bft) 0,00 h 0,00 h 18,5 km/h (3 Bft)
05.02.2011 11:00 13,6 C 11,0 C 0,0 UV-I 0,0 C 62 % 79 % 0 % 1021,5 hPa 0,0 l/m 18,2 km/h (3 Bft) 0,00 h 0,00 h 18,5 km/h (3 Bft)
05.02.2011 12:00 13,6 C 11,0 C 0,0 UV-I 0,0 C 62 % 80 % 0 % 1021,6 hPa 0,0 l/m 18,2 km/h (3 Bft) 0,00 h 0,00 h 19,2 km/h (3 Bft)
05.02.2011 13:00 13,6 C 10,8 C 0,0 UV-I 0,0 C 62 % 81 % 0 % 1021,3 hPa 0,0 l/m 17,3 km/h (3 Bft) 0,00 h 0,00 h 19,0 km/h (3 Bft)
05.02.2011 14:00 13,8 C 11,0 C 0,0 UV-I 0,0 C 62 % 79 % 0 % 1021,1 hPa 0,0 l/m 16,2 km/h (3 Bft) 0,00 h 0,00 h 19,6 km/h (3 Bft)
05.02.2011 15:00 13,8 C 11,0 C 0,0 UV-I 0,0 C 62 % 79 % 0 % 1021,1 hPa 0,0 l/m 16,8 km/h (3 Bft) 0,00 h 0,00 h 17,9 km/h (3 Bft)
05.02.2011 16:00 13,8 C 11,2 C 0,0 UV-I 0,0 C 62 % 78 % 0 % 1021,0 hPa 0,0 l/m 15,2 km/h (3 Bft) 0,00 h 0,00 h 15,6 km/h (3 Bft)
05.02.2011 17:00 13,8 C 11,3 C 0,0 UV-I 0,0 C 61 % 77 % 0 % 1021,2 hPa 0,0 l/m 13,9 km/h (3 Bft) 0,00 h 0,00 h 15,3 km/h (3 Bft)
05.02.2011 18:00 13,8 C 11,2 C 0,0 UV-I 0,0 C 62 % 78 % 0 % 1021,4 hPa 0,0 l/m 12,9 km/h (3 Bft) 0,00 h 0,00 h 13,2 km/h (3 Bft)
05.02.2011 19:00 13,9 C 11,3 C 0,0 UV-I 0,0 C 62 % 79 % 0 % 1021,6 hPa 0,0 l/m 14,9 km/h (3 Bft) 0,00 h 0,00 h 16,6 km/h (3 Bft)
05.02.2011 20:00 13,9 C 11,3 C 0,0 UV-I 0,0 C 62 % 80 % 0 % 1021,7 hPa 0,0 l/m 15,3 km/h (3 Bft) 0,00 h 0,00 h 16,5 km/h (3 Bft)
05.02.2011 21:00 13,8 C 11,1 C 0,0 UV-I 0,0 C 63 % 82 % 0 % 1022,1 hPa 0,0 l/m 15,4 km/h (3 Bft) 0,00 h 0,00 h 16,0 km/h (3 Bft)
05.02.2011 22:00 13,9 C 10,9 C 0,0 UV-I 0,0 C 64 % 83 % 0 % 1022,2 hPa 0,0 l/m 14,5 km/h (3 Bft) 0,00 h 0,00 h 15,5 km/h (3 Bft)
05.02.2011 23:00 14,0 C 11,2 C 0,0 UV-I 0,0 C 64 % 82 % 0 % 1022,2 hPa 0,0 l/m 14,8 km/h (3 Bft) 0,00 h 0,00 h 14,6 km/h (3 Bft)
06.02.2011 00:00 13,9 C 11,1 C 0,0 UV-I 0,0 C 63 % 82 % 0 % 1022,1 hPa 0,0 l/m 14,6 km/h (3 Bft) 0,00 h 0,00 h 16,5 km/h (3 Bft)
06.02.2011 01:00 13,9 C 11,3 C 0,0 UV-I 0,0 C 63 % 80 % 0 % 1022,3 hPa 0,0 l/m 14,7 km/h (3 Bft) 0,00 h 0,00 h 15,7 km/h (3 Bft)
06.02.2011 02:00 14,0 C 11,2 C 0,0 UV-I 0,0 C 63 % 80 % 0 % 1022,5 hPa 0,0 l/m 15,8 km/h (3 Bft) 0,00 h 0,00 h 17,6 km/h (3 Bft)
06.02.2011 03:00 13,9 C 11,4 C 0,0 UV-I 0,0 C 63 % 78 % 0 % 1022,8 hPa 0,0 l/m 15,5 km/h (3 Bft) 0,00 h 0,00 h 16,2 km/h (3 Bft)
06.02.2011 04:00 14,0 C 11,3 C 0,0 UV-I 0,0 C 62 % 78 % 0 % 1022,9 hPa 0,0 l/m 14,2 km/h (3 Bft) 0,00 h 0,00 h 13,9 km/h (3 Bft)
06.02.2011 05:00 14,1 C 11,0 C 0,0 UV-I 0,0 C 62 % 79 % 0 % 1023,1 hPa 0,0 l/m 14,3 km/h (3 Bft) 0,00 h 0,00 h 14,8 km/h (3 Bft)
06.02.2011 06:00 14,1 C 10,9 C 0,0 UV-I 0,0 C 61 % 79 % 0 % 1023,2 hPa 0,0 l/m 12,0 km/h (2 Bft) 0,00 h 0,00 h 13,2 km/h (3 Bft)
06.02.2011 07:00 14,1 C 10,7 C 0,0 UV-I 0,0 C 61 % 79 % 0 % 1023,6 hPa 0,0 l/m 13,3 km/h (3 Bft) 0,00 h 0,00 h 13,1 km/h (3 Bft)
06.02.2011 08:00 14,1 C 10,5 C 0,0 UV-I 0,0 C 60 % 78 % 0 % 1024,1 hPa 0,0 l/m 10,7 km/h (2 Bft) 0,00 h 0,00 h 11,4 km/h (2 Bft)
06.02.2011 09:00 14,2 C 10,5 C 0,0 UV-I 0,0 C 60 % 77 % 0 % 1024,2 hPa 0,0 l/m 12,0 km/h (2 Bft) 0,00 h 0,00 h 11,8 km/h (2 Bft)
06.02.2011 10:00 14,2 C 10,5 C 0,0 UV-I 0,0 C 59 % 76 % 0 % 1024,5 hPa 0,0 l/m 12,2 km/h (2 Bft) 0,00 h 0,00 h 11,8 km/h (2 Bft)
06.02.2011 11:00 14,3 C 10,5 C 0,0 UV-I 0,0 C 58 % 75 % 0 % 1024,8 hPa 0,0 l/m 13,9 km/h (3 Bft) 0,00 h 0,00 h 14,2 km/h (3 Bft)
06.02.2011 12:00 14,4 C 10,5 C 0,0 UV-I 0,0 C 57 % 74 % 0 % 1025,1 hPa 0,0 l/m 12,6 km/h (3 Bft) 0,00 h 0,00 h 13,0 km/h (3 Bft)
06.02.2011 13:00 14,4 C 10,5 C 0,0 UV-I 0,0 C 57 % 73 % 1 % 1024,8 hPa 0,0 l/m 12,1 km/h (2 Bft) 0,00 h 0,00 h 14,2 km/h (3 Bft)
06.02.2011 14:00 14,3 C 10,5 C 0,0 UV-I 0,0 C 56 % 73 % 1 % 1024,6 hPa 0,0 l/m 11,3 km/h (2 Bft) 0,00 h 0,00 h 12,8 km/h (3 Bft)
06.02.2011 15:00 14,3 C 10,3 C 0,0 UV-I 0,0 C 56 % 72 % 0 % 1024,3 hPa 0,0 l/m 11,2 km/h (2 Bft) 0,00 h 0,00 h 11,0 km/h (2 Bft)
06.02.2011 16:00 14,4 C 10,0 C 0,0 UV-I 0,0 C 55 % 72 % 0 % 1024,2 hPa 0,0 l/m 9,9 km/h (2 Bft) 0,00 h 0,00 h 11,3 km/h (2 Bft)
06.02.2011 17:00 14,2 C 9,6 C 0,0 UV-I 0,0 C 55 % 73 % 0 % 1024,2 hPa 0,0 l/m 9,9 km/h (2 Bft) 0,00 h 0,00 h 11,3 km/h (2 Bft)
06.02.2011 18:00 14,0 C 9,4 C 0,0 UV-I 0,0 C 55 % 74 % 0 % 1024,4 hPa 0,0 l/m 8,8 km/h (2 Bft) 0,00 h 0,00 h 10,3 km/h (2 Bft)
06.02.2011 19:00 13,9 C 9,3 C 0,0 UV-I 0,0 C 55 % 74 % 0 % 1024,7 hPa 0,0 l/m 10,5 km/h (2 Bft) 0,00 h 0,00 h 10,9 km/h (2 Bft)
06.02.2011 20:00 13,9 C 9,1 C 0,0 UV-I 0,0 C 54 % 74 % 0 % 1024,5 hPa 0,0 l/m 11,3 km/h (2 Bft) 0,00 h 0,00 h 13,4 km/h (3 Bft)
06.02.2011 21:00 13,8 C 8,9 C 0,0 UV-I 0,0 C 55 % 74 % 0 % 1024,4 hPa 0,0 l/m 7,4 km/h (2 Bft) 0,00 h 0,00 h 7,2 km/h (2 Bft)
06.02.2011 22:00 13,6 C 8,9 C 0,0 UV-I 0,0 C 55 % 74 % 0 % 1024,3 hPa 0,0 l/m 7,7 km/h (2 Bft) 0,00 h 0,00 h 7,9 km/h (2 Bft)
06.02.2011 23:00 13,6 C 8,9 C 0,0 UV-I 0,0 C 55 % 75 % 0 % 1024,3 hPa 0,0 l/m 6,2 km/h (2 Bft) 0,00 h 0,00 h 7,4 km/h (2 Bft)
Min-Datum _ 01.02.11 01.02.11 31.01.11 31.01.11 01.02.11 06.02.11 31.01.11 04.02.11 - 31.01.11 - - 31.01.11
_ Min-Zeit 10:08 08:16 00:00 00:00 09:46 14:38 00:00 15:46 - 00:40 - - 00:10
Minimum _ 8,8 C -4,0 C 0,0 UV-I 0,0 C 43 % 72 % 0 % 1017,9 hPa - 0,0 km/h (0 Bft) - - 0,0 km/h (0 Bft)
Max-Datum _ 06.02.11 06.02.11 31.01.11 03.02.11 04.02.11 03.02.11 03.02.11 02.02.11 03.02.11 05.02.11 31.01.11 31.01.11 05.02.11
_ Max-Zeit 12:06 03:38 00:00 11:16 14:30 10:10 11:16 10:26 03:02 04:38 00:00 00:00 07:48
Maximum _ 14,4 C 11,5 C 0,0 UV-I 1,9 C 64 % 95 % 54 % 1029,3 hPa 1,1 l/m 26,1 km/h
W-SW (4 Bft)
0,00 h 0,00 h 58,0 km/h
W-SW (7 Bft)
Durchschnitt _ 11,2 C 4,3 C 0,0 UV-I 0,0 C 55 % 86 % 1 % 1023,5 hPa #4,0 l/m 8,1 km/h (2 Bft) #0 min. #0 min. 9,1 km/h (2 Bft)
© 2012 W. Hausmann